Regional Weather Roundup
Issued by NWS

Home | Current Version | Previous Version | Graphics & Text | Print | Product List | Glossary Off
Versions: 1 2 3 4 5 6 7 8 9 10 11 12 13 14 15 16 17 18 19 20 21 22 23 24 25 26 27 28 29 30 31 32 33 34 35 36 37 38 39 40 41 42 43 44 45 46 47 48 49 50

603
ASUS43 KLSX 300657
RWRMO

WEATHER SUMMARY FOR MISSOURI
NATIONAL WEATHER SERVICE SPRINGFIELD MO
200 AM CDT SAT JUL 30 2016

NOTE: "FAIR" INDICATES FEW OR NO CLOUDS BELOW 12,000 FEET WITH NO
       SIGNIFICANT WEATHER AND/OR OBSTRUCTIONS TO VISIBILITY.
       CURRENT SKY AND/OR WEATHER CONDITIONS ARE NOT AVAILABLE FOR
       CHILLICOTHE AND FARMINGTON.

MOZ001>031-035>038-043-044-053-054-300800-
...NORTHERN AND WESTERN MISSOURI...

CITY           SKY/WX    TMP DP  RH WIND       PRES   REMARKS
KANSAS CTY INT CLEAR     66  60  81 NE6       30.02F
LEE`S SUMMIT   CLEAR     69  63  81 NE6       30.01F
ST JOSEPH      CLEAR     64  61  90 NW3       30.02S

$$
MOZ066>068-077>081-088>096-101>105-300800-
...SOUTHWEST MISSOURI...

CITY           SKY/WX    TMP DP  RH WIND       PRES   REMARKS
SPRINGFIELD    CLEAR     71  67  87 CALM      30.00F
JOPLIN         CLEAR     70  69  97 CALM      30.00S

$$
MOZ032>034-039>042-045>050-055>058-069>072-300800-
...CENTRAL MISSOURI...

CITY           SKY/WX    TMP DP  RH WIND       PRES   REMARKS
COLUMBIA       NOT AVBL
JEFFERSON CITY CLEAR     68  66  93 CALM      29.97F
ROLLA          CLEAR     67  65  93 CALM      29.97F
SEDALIA        CLEAR     69  65  86 W3        30.00F

$$
MOZ051-052-059>065-300800-
...EAST CENTRAL MISSOURI...

CITY           SKY/WX    TMP DP  RH WIND       PRES   REMARKS
ST LOUIS INTL  PTCLDY    74  67  78 CALM      29.96S

$$
MOZ072>076-082>087-097>100-106>115-300800-
...SOUTH CENTRAL AND SOUTHEAST MISSOURI...

CITY           SKY/WX    TMP DP  RH WIND       PRES   REMARKS
CAPE GIRARDEAU CLOUDY    70  68  93 CALM      29.95S
POPLAR BLUFF   CLOUDY    71  70  96 W6        29.95S
WEST PLAINS    FOG       70  68  93 CALM      30.02S VSB 1

$$



USA.gov is the U.S. government's official web portal to all federal, state and local government web resources and services.